Meteo Giornale » Osservazioni meteo Stati Uniti (USA) » Oceanside
ore: 12:30 - Osservazioni Meteo Oceanside
Lat. 33° 13' N Lon. 117° 20' W Alt. 8 metri s.l.m.
18 °C
Nuvoloso
Temp. 24 Ore
8 °C
21 °C
Sud/Sud-Est
9.3 Km/h
Dew point 13 °C
Umidità 72 %
Visibilità 10 Km
Il sole sorge alle ore 06:23
Il sole tramonta alle ore 19:14
| Data e Ora | Cielo e Fenomeni | T °C | DP °C | Um. % | Pres. hPa | Vis. km | Vento km/h | |
|---|---|---|---|---|---|---|---|---|
| Oggi h: 12:30 | Nuvoloso | 18 | 13 | 72 | 1010 | 10 | S/SE 9.3 | |
| Oggi h: 12:10 | Molto Nuvoloso | 18 | 13 | 72 | 1010 | 10 | S 9.3 | |
| Oggi h: 11:50 | Coperto | 17 | 13 | 77 | 1010 | 10 | S/SO 9.3 | |
| Oggi h: 11:09 | Coperto | 16 | 13 | 82 | 1010 | 10 | S/SO 11.1 | |
| Oggi h: 10:49 | Coperto | 17 | 13 | 77 | 1010 | 10 | SE 11.1 | |
| Oggi h: 10:30 | Coperto | 17 | 13 | 77 | 1010 | 10 | S/SE 13 | |
| Oggi h: 10:09 | Coperto | 17 | 13 | 77 | 1009 | 10 | SE 13 | |
| Oggi h: 09:50 | Molto Nuvoloso | 16 | 13 | 82 | 1009 | 10 | SE 13 | |
| Oggi h: 09:30 | Nuvoloso | 16 | 13 | 82 | 1009 | 10 | N 5.5 | |
| Oggi h: 09:09 | Sereno | 15 | 13 | 87 | 1010 | 10 | S 7.4 | |
| Oggi h: 08:49 | Sereno | 15 | 12 | 82 | 1010 | 10 | S/SE 7.4 | |
| Oggi h: 08:33 | Sereno | 14 | 12 | 87 | 1010 | 10 | N 5.5 | |
| Oggi h: 08:09 | Sereno | 13 | 12 | 93 | 1009 | 10 | N 0 | |
| Oggi h: 07:50 | Sereno | 13 | 12 | 93 | 1009 | 10 | N 0 | |
| Oggi h: 07:30 | Sereno | 12 | 12 | 100 | 1009 | 10 | N 0 | |
| Oggi h: 07:10 | Sereno | 11 | 11 | 100 | 1009 | 10 | N 0 | |
| Oggi h: 06:49 | Sereno | 10 | 10 | 100 | 1009 | 10 | N 0 | |
| Oggi h: 06:30 | Sereno | 9 | 9 | 100 | 1009 | 11 | N 0 | |
| Oggi h: 06:09 | Sereno | 9 | 9 | 100 | 1009 | 10 | N 0 | |
| Oggi h: 05:49 | Foschia | 8 | 8 | 100 | 1009 | 2 | N 0 | |
| Oggi h: 05:30 | Foschia | 9 | 9 | 100 | 1009 | 5 | N 0 | |
| Oggi h: 05:10 | Foschia | 9 | 9 | 100 | 1009 | 2 | N 0 | |
| Oggi h: 04:49 | Foschia | 8 | 8 | 100 | 1009 | 2 | N 0 | |
| Oggi h: 04:29 | Sereno | 9 | 9 | 100 | 1009 | 11 | N 0 | |
| Oggi h: 04:13 | Sereno | 10 | 9 | 93 | 1009 | 11 | N 0 | |
| Oggi h: 03:51 | Sereno | 9 | 9 | 100 | 1009 | 11 | N 0 | |
| Oggi h: 03:29 | Sereno | 9 | 9 | 100 | 1009 | 10 | N 0 | |
| Oggi h: 03:10 | Sereno | 10 | 9 | 93 | 1009 | 10 | N 0 | |
| Oggi h: 02:52 | Sereno | 10 | 9 | 93 | 1009 | 10 | N 0 | |
| Oggi h: 02:29 | Sereno | 11 | 10 | 93 | 1009 | 10 | N 0 | |
| Oggi h: 02:10 | Sereno | 9 | 9 | 100 | 1009 | 10 | N 0 | |
| Oggi h: 01:50 | Sereno | 9 | 8 | 93 | 1009 | 10 | N 0 | |
| Oggi h: 01:30 | Sereno | 9 | 9 | 100 | 1009 | 10 | N 0 | |
| Oggi h: 01:09 | Sereno | 11 | 9 | 87 | 1009 | 10 | N 0 | |
| Oggi h: 00:49 | Sereno | 10 | 9 | 93 | 1009 | 10 | N 0 | |
| Oggi h: 00:30 | Sereno | 11 | 10 | 93 | 1009 | 10 | N 0 | |
| Oggi h: 00:13 | Sereno | 11 | 9 | 87 | 1009 | 10 | N 0 | |
| Ieri h: 23:52 | Sereno | 11 | 9 | 87 | 1009 | 10 | N 0 | |
| Ieri h: 23:30 | Sereno | 12 | 10 | 87 | 1009 | 10 | N 0 | |
| Ieri h: 23:10 | Sereno | 11 | 9 | 87 | 1009 | 10 | N 0 | |
| Ieri h: 22:49 | Sereno | 12 | 10 | 87 | 1009 | 10 | N 0 | |
| Ieri h: 22:30 | Sereno | 12 | 10 | 87 | 1009 | 10 | N 0 | |
| Ieri h: 22:10 | Sereno | 13 | 10 | 81 | 1009 | 10 | N 0 | |
| Ieri h: 21:49 | Sereno | 13 | 11 | 87 | 1009 | 10 | N 0 | |
| Ieri h: 21:29 | Sereno | 14 | 11 | 82 | 1009 | 10 | O 9.3 | |
| Ieri h: 21:09 | Sereno | 14 | 11 | 82 | 1009 | 10 | O 9.3 | |
| Ieri h: 20:49 | Sereno | 15 | 11 | 76 | 1009 | 10 | O 7.4 | |
| Ieri h: 20:32 | Sereno | 16 | 11 | 72 | 1009 | 10 | O 7.4 | |
| Ieri h: 20:12 | Sereno | 16 | 11 | 72 | 1008 | 10 | O 7.4 | |
| Ieri h: 19:49 | Sereno | 16 | 11 | 72 | 1009 | 10 | O 11.1 | |
| Ieri h: 19:32 | Sereno | 17 | 11 | 67 | 1009 | 10 | O 7.4 | |
| Ieri h: 19:09 | Sereno | 18 | 11 | 63 | 1009 | 10 | O 13 | |
| Ieri h: 18:49 | Sereno | 19 | 11 | 59 | 1009 | 10 | O 9.3 | |
| Ieri h: 18:29 | Sereno | 19 | 11 | 59 | 1009 | 10 | N 5.5 | |
| Ieri h: 18:09 | Sereno | 19 | 11 | 59 | 1009 | 10 | O 7.4 | |
| Ieri h: 17:30 | Sereno | 20 | 11 | 56 | 1009 | 10 | O 9.3 | |
| Ieri h: 17:11 | Sereno | 20 | 11 | 56 | 1009 | 10 | O 11.1 | |
| Ieri h: 16:49 | Sereno | 21 | 12 | 56 | 1009 | 10 | O 9.3 | |
| Ieri h: 16:30 | Sereno | 21 | 12 | 56 | 1010 | 10 | O/SO 11.1 | |
| Ieri h: 16:10 | Sereno | 21 | 12 | 56 | 1010 | 10 | O 13 | |
| Ieri h: 15:31 | Sereno | 21 | 12 | 56 | 1010 | 10 | O 7.4 | |
| Ieri h: 15:09 | Sereno | 20 | 12 | 59 | 1011 | 10 | O/NO 11.1 | |
| Ieri h: 14:49 | Sereno | 21 | 12 | 56 | 1011 | 10 | O 9.3 | |
| Ieri h: 14:30 | Sereno | 21 | 12 | 56 | 1011 | 10 | O/NO 9.3 | |
| Ieri h: 14:11 | Sereno | 21 | 12 | 56 | 1011 | 10 | O 13 | |
| Ieri h: 13:52 | Sereno | 21 | 12 | 56 | 1012 | 10 | O/NO 11.1 | |



